Regional Weather Roundup
Issued by NWS Little Rock, AR

Home | Current Version | Previous Version | Text Only | Print | Product List | Glossary On
Versions: 1 2 3 4 5 6 7 8 9 10 11 12 13 14 15 16 17 18 19 20 21 22 23 24 25 26 27 28 29 30 31 32 33 34 35 36 37 38 39 40 41 42 43 44 45 46 47 48 49 50
933
ASUS44 KLZK 240305
RWRLZK

WEATHER ROUNDUP FOR ARKANSAS
NATIONAL WEATHER SERVICE LITTLE ROCK AR
1000 PM CDT FRI JUN 23 2017

NOTE: "FAIR" INDICATES FEW OR NO CLOUDS BELOW 12,000 FEET WITH NO
SIGNIFICANT WEATHER AND/OR OBSTRUCTIONS TO VISIBILITY.

ARZ001-003-010-029-240400-
NORTHWEST ARKANSAS

CITY           SKY/WX    TMP DP  RH WIND       PRES   REMARKS
FAYETTEVILLE   CLOUDY    66  64  93 CALM      30.02R
FORT SMITH     CLOUDY    75  71  87 E5        29.96S
HARRISON       CLOUDY    65  65 100 W3        30.01R
BENTONVILLE    CLOUDY    70  61  73 CALM      30.03R
ROGERS         CLOUDY    69  62  78 CALM      30.03R
SILOAM SPGS    CLEAR     68  61  77 N3        30.02R
HIGHFILL       CLOUDY    70  61  73 N5        30.02R
$$

ARZ004-005-016-240400-
NORTH CENTRAL ARKANSAS

CITY           SKY/WX    TMP DP  RH WIND       PRES   REMARKS
BATESVILLE     CLOUDY    70  66  88 W5        29.97R
FLIPPIN        CLOUDY    70  64  83 CALM      29.97R
MTN HOME       CLOUDY    67  67 100 CALM      29.99R
$$

ARZ040-041-240400-
WEST CENTRAL ARKANSAS

CITY           SKY/WX    TMP DP  RH WIND       PRES   REMARKS
MENA           CLOUDY    77  77 100 N8        29.98R
MOUNT IDA      CLOUDY    72  69  90 CALM      29.97R FOG
$$

ARZ009-017-025-026-028-240400-
NORTHEAST ARKANSAS

CITY           SKY/WX    TMP DP  RH WIND       PRES   REMARKS
CORNING        FAIR      73  72  94 NW7       29.94R
JONESBORO      CLOUDY    73  72  96 NW6       29.92R
WALNUT RIDGE   CLOUDY    72  66  83 NW7       29.94R
BLYTHEVILLE    CLOUDY    75  73  93 NW8       29.90R
$$

ARZ022-023-033-042-044-240400-
CENTRAL ARKANSAS

CITY           SKY/WX    TMP DP  RH WIND       PRES   REMARKS
LITTLE ROCK    CLOUDY    71  71 100 N6        29.96R
N LITTLE ROCK    N/A     69  68  96 CALM      29.96R
JACKSONVILLE   CLOUDY    71  71 100 CALM      29.95R
CONWAY           N/A     72  70  94 CALM      29.96R
SEARCY         CLOUDY    70  70 100 CALM      29.98R
HOT SPRINGS    CLOUDY    71  71 100 E3        29.98R
RUSSELLVILLE   CLOUDY    70  69  97 CALM      29.97R
CLINTON        FAIR      70  68  94 CALM      29.98R
$$

ARZ036-240400-
EAST ARKANSAS

CITY           SKY/WX    TMP DP  RH WIND       PRES   REMARKS
WEST MEMPHIS   MOCLDY    72  72 100 SW5       29.91S
$$

ARZ050-053-066-070-073-240400-
SOUTHWEST ARKANSAS

CITY           SKY/WX    TMP DP  RH WIND       PRES   REMARKS
CAMDEN         LGT RAIN  70  66  88 NW3       29.93R
TEXARKANA      TSTM      73  73 100 N12       29.98R FOG
EL DORADO      CLOUDY    71  70  96 W3        29.92F
DE QUEEN       CLOUDY    76  75  97 E7        29.91R THUNDER
$$

ARZ056-057-069-240400-
SOUTHEAST ARKANSAS

CITY           SKY/WX    TMP DP  RH WIND       PRES   REMARKS
PINE BLUFF     CLOUDY    71  69  93 NE3       29.92R
STUTTGART      CLOUDY    72  61  68 NW3       29.95S
MONTICELLO       N/A     71  69  93 CALM      29.89F

$$






USA.gov is the U.S. government's official web portal to all federal, state and local government web resources and services.